When you browse on this site, cookies collect data to enhance your experience and personalize the content and advertising you see.
Visit our Privacy Policy to learn more. By continuing to use the site, you agree to this use of cookies and data.
  • In Schweiz
  • Länderverzeichnis
  • Für 7 Tage
  • Wassertemperatur
  • Wetterkarte
  • Widgets
  • user-avatar
    Anmelden

    Stündliche Wetter Kchulna

    Heute, 14 Oktober, Montag

    Zeit Temperatur Niederschläge Wind Luftdruck Luftfeuchtigkeit
    00:00 +26°C° 0 mm 1 m/S 757 mmHg 78%
    01:00 +26°C° 0 mm 1 m/S 757 mmHg 79%
    02:00 +26°C° 0 mm 2 m/S 757 mmHg 79%
    03:00 +25°C° 0 mm 2 m/S 757 mmHg 80%
    04:00 +25°C° 0 mm 2 m/S 757 mmHg 79%
    05:00 +25°C° 0 mm 2 m/S 758 mmHg 78%
    06:00 +25°C° 0 mm 1 m/S 758 mmHg 82%
    07:00 +27°C° 0 mm 1 m/S 758 mmHg 76%
    08:00 +28°C° 0 mm 1 m/S 759 mmHg 71%
    09:00 +30°C° 0 mm 2 m/S 759 mmHg 65%
    10:00 +31°C° 0 mm 2 m/S 759 mmHg 61%
    11:00 +32°C° 0 mm 2 m/S 758 mmHg 56%
    12:00 +34°C° 0 mm 2 m/S 759 mmHg 49%
    13:00 +34°C° 0 mm 2 m/S 758 mmHg 50%
    14:00 +34°C° 0 mm 2 m/S 757 mmHg 51%
    15:00 +34°C° 0 mm 3 m/S 756 mmHg 52%
    16:00 +31°C° 0 mm 3 m/S 756 mmHg 58%
    17:00 +30°C° 0 mm 3 m/S 756 mmHg 63%
    18:00 +28°C° 0 mm 2 m/S 756 mmHg 69%
    19:00 +28°C° 0 mm 2 m/S 757 mmHg 69%
    20:00 +27°C° 0 mm 2 m/S 757 mmHg 69%
    21:00 +27°C° 0 mm 2 m/S 758 mmHg 69%
    22:00 +26°C° 0 mm 2 m/S 758 mmHg 69%
    23:00 +26°C° 0 mm 2 m/S 758 mmHg 70%

    Morgen, 15 Oktober, Dienstag

    Zeit Temperatur Niederschläge Wind Luftdruck Luftfeuchtigkeit
    00:00 +26°C° 0 mm 1 m/S 758 mmHg 71%
    01:00 +25°C° 0 mm 2 m/S 758 mmHg 72%
    02:00 +25°C° 0 mm 2 m/S 758 mmHg 73%
    03:00 +25°C° 0 mm 2 m/S 758 mmHg 74%
    04:00 +25°C° 0 mm 1 m/S 758 mmHg 75%
    05:00 +24°C° 0 mm 1 m/S 758 mmHg 76%
    06:00 +24°C° 0 mm 1 m/S 758 mmHg 78%
    07:00 +26°C° 0 mm 1 m/S 759 mmHg 75%
    08:00 +28°C° 0 mm 1 m/S 759 mmHg 71%
    09:00 +30°C° 0 mm 1 m/S 760 mmHg 68%
    10:00 +31°C° 0 mm 1 m/S 759 mmHg 63%
    11:00 +33°C° 0 mm 1 m/S 759 mmHg 59%
    12:00 +32°C° 0 mm 0 m/S 759 mmHg 54%
    13:00 +34°C° 0 mm 1 m/S 758 mmHg 53%
    14:00 +34°C° 0 mm 1 m/S 757 mmHg 53%
    15:00 +35°C° 0 mm 2 m/S 757 mmHg 53%
    16:00 +32°C° 0 mm 1 m/S 757 mmHg 58%
    17:00 +31°C° 0 mm 1 m/S 757 mmHg 63%
    18:00 +29°C° 0 mm 1 m/S 757 mmHg 68%
    19:00 +29°C° 0 mm 1 m/S 757 mmHg 69%
    20:00 +28°C° 0 mm 1 m/S 758 mmHg 71%
    21:00 +28°C° 0 mm 1 m/S 759 mmHg 72%
    22:00 +27°C° 0 mm 1 m/S 759 mmHg 74%
    23:00 +27°C° 0 mm 1 m/S 759 mmHg 76%

    übermorgen, 16 Oktober, Mittwoch

    Zeit Temperatur Niederschläge Wind Luftdruck Luftfeuchtigkeit
    00:00 +24°C° 0 mm 0 m/S 758 mmHg 78%
    01:00 +24°C° 0 mm 0 m/S 758 mmHg 79%
    02:00 +24°C° 0 mm 0 m/S 758 mmHg 79%
    03:00 +24°C° 0 mm 0 m/S 758 mmHg 80%
    04:00 +24°C° 0 mm 0 m/S 758 mmHg 80%
    05:00 +26°C° 0 mm 1 m/S 758 mmHg 80%
    06:00 +26°C° 0 mm 1 m/S 758 mmHg 80%
    07:00 +27°C° 0 mm 1 m/S 759 mmHg 76%
    08:00 +29°C° 0 mm 1 m/S 759 mmHg 71%
    09:00 +31°C° 0 mm 2 m/S 760 mmHg 66%
    10:00 +32°C° 0 mm 1 m/S 759 mmHg 63%
    11:00 +33°C° 0 mm 1 m/S 759 mmHg 60%
    12:00 +34°C° 0 mm 1 m/S 758 mmHg 57%
    13:00 +34°C° 0.9 mm 1 m/S 757 mmHg 58%
    14:00 +33°C° 0.9 mm 1 m/S 757 mmHg 59%
    15:00 +33°C° 0.9 mm 1 m/S 756 mmHg 61%
    16:00 +32°C° 0.9 mm 1 m/S 756 mmHg 66%
    17:00 +30°C° 0.9 mm 1 m/S 756 mmHg 71%
    18:00 +29°C° 0.9 mm 1 m/S 756 mmHg 76%
    19:00 +29°C° 0 mm 1 m/S 757 mmHg 77%
    20:00 +28°C° 0 mm 1 m/S 757 mmHg 79%
    21:00 +28°C° 0 mm 1 m/S 758 mmHg 81%
    22:00 +27°C° 0 mm 1 m/S 758 mmHg 82%
    23:00 +27°C° 0 mm 1 m/S 758 mmHg 84%

    17 Oktober, Donnerstag

    Zeit Temperatur Niederschläge Wind Luftdruck Luftfeuchtigkeit
    00:00 +27°C° 0 mm 1 m/S 758 mmHg 85%
    01:00 +27°C° 0 mm 1 m/S 758 mmHg 86%
    02:00 +26°C° 0 mm 1 m/S 758 mmHg 86%
    03:00 +26°C° 0 mm 1 m/S 758 mmHg 86%
    04:00 +26°C° 0 mm 1 m/S 758 mmHg 86%
    05:00 +26°C° 0 mm 1 m/S 758 mmHg 86%
    06:00 +26°C° 0 mm 1 m/S 759 mmHg 85%
    07:00 +27°C° 0 mm 1 m/S 759 mmHg 80%
    08:00 +29°C° 0 mm 2 m/S 759 mmHg 75%
    09:00 +31°C° 0 mm 2 m/S 760 mmHg 70%
    10:00 +32°C° 0 mm 2 m/S 759 mmHg 65%
    11:00 +34°C° 0 mm 2 m/S 759 mmHg 61%
    12:00 +35°C° 0 mm 2 m/S 759 mmHg 57%
    13:00 +35°C° 0 mm 2 m/S 758 mmHg 57%
    14:00 +35°C° 0 mm 2 m/S 757 mmHg 58%
    15:00 +34°C° 0 mm 1 m/S 756 mmHg 59%
    16:00 +32°C° 0 mm 2 m/S 756 mmHg 62%
    17:00 +31°C° 0 mm 2 m/S 756 mmHg 66%
    18:00 +30°C° 0 mm 2 m/S 756 mmHg 70%
    19:00 +29°C° 0 mm 2 m/S 757 mmHg 71%
    20:00 +29°C° 0 mm 2 m/S 757 mmHg 72%
    21:00 +28°C° 0 mm 2 m/S 757 mmHg 73%
    22:00 +28°C° 0 mm 2 m/S 758 mmHg 73%
    23:00 +27°C° 0 mm 2 m/S 758 mmHg 72%

    18 Oktober, Freitag

    Zeit Temperatur Niederschläge Wind Luftdruck Luftfeuchtigkeit
    00:00 +27°C° 0 mm 2 m/S 758 mmHg 72%
    01:00 +27°C° 0 mm 2 m/S 758 mmHg 72%
    02:00 +26°C° 0 mm 2 m/S 757 mmHg 72%
    03:00 +26°C° 0 mm 2 m/S 757 mmHg 71%
    04:00 +26°C° 0 mm 2 m/S 758 mmHg 72%
    05:00 +26°C° 0 mm 2 m/S 758 mmHg 73%
    06:00 +26°C° 0 mm 1 m/S 758 mmHg 74%
    07:00 +27°C° 0 mm 2 m/S 758 mmHg 70%
    08:00 +29°C° 0 mm 2 m/S 759 mmHg 67%
    09:00 +31°C° 0 mm 2 m/S 760 mmHg 63%
    10:00 +32°C° 0 mm 2 m/S 759 mmHg 59%
    11:00 +34°C° 0 mm 2 m/S 759 mmHg 54%
    12:00 +35°C° 0 mm 2 m/S 758 mmHg 50%
    13:00 +35°C° 0 mm 2 m/S 758 mmHg 51%
    14:00 +35°C° 0 mm 3 m/S 757 mmHg 52%
    15:00 +35°C° 0 mm 3 m/S 756 mmHg 53%
    16:00 +33°C° 0 mm 3 m/S 756 mmHg 58%
    17:00 +31°C° 0 mm 2 m/S 756 mmHg 62%
    18:00 +29°C° 0 mm 2 m/S 756 mmHg 67%
    19:00 +29°C° 0 mm 1 m/S 757 mmHg 68%
    20:00 +28°C° 0 mm 1 m/S 757 mmHg 68%
    21:00 +28°C° 0 mm 1 m/S 758 mmHg 69%
    22:00 +28°C° 0 mm 1 m/S 758 mmHg 69%
    23:00 +27°C° 0 mm 1 m/S 758 mmHg 69%

    19 Oktober, Samstag

    Zeit Temperatur Niederschläge Wind Luftdruck Luftfeuchtigkeit
    00:00 +27°C° 0 mm 1 m/S 758 mmHg 70%
    01:00 +27°C° 0 mm 1 m/S 758 mmHg 71%
    02:00 +27°C° 0 mm 1 m/S 758 mmHg 72%
    03:00 +26°C° 0 mm 1 m/S 758 mmHg 74%
    04:00 +26°C° 0 mm 1 m/S 758 mmHg 74%
    05:00 +26°C° 0 mm 1 m/S 758 mmHg 75%
    06:00 +26°C° 0 mm 1 m/S 758 mmHg 76%
    07:00 +27°C° 0 mm 1 m/S 759 mmHg 71%
    08:00 +29°C° 0 mm 1 m/S 760 mmHg 67%
    09:00 +31°C° 0 mm 1 m/S 760 mmHg 62%
    10:00 +32°C° 0 mm 2 m/S 760 mmHg 59%
    11:00 +34°C° 0 mm 2 m/S 759 mmHg 55%
    12:00 +35°C° 0 mm 3 m/S 759 mmHg 52%
    13:00 +35°C° 0 mm 3 m/S 758 mmHg 52%
    14:00 +35°C° 0 mm 3 m/S 757 mmHg 53%
    15:00 +35°C° 0 mm 3 m/S 757 mmHg 54%
    16:00 +32°C° 0 mm 2 m/S 757 mmHg 58%
    17:00 +31°C° 0 mm 2 m/S 756 mmHg 63%
    18:00 +29°C° 0 mm 2 m/S 756 mmHg 67%
    19:00 +29°C° 0 mm 2 m/S 757 mmHg 69%
    20:00 +28°C° 0 mm 2 m/S 757 mmHg 70%
    21:00 +28°C° 0 mm 2 m/S 758 mmHg 71%
    22:00 +27°C° 0 mm 1 m/S 758 mmHg 71%
    23:00 +27°C° 0 mm 1 m/S 758 mmHg 71%
    Mehr zeigen